This is the latest recevied weather packets stored in our database for station/object KC8QDR-1. If no packets are shown the sender has not sent any weather packets the latest 10 day(s).
| Time | Temp. | Humidity | Pressure | Rain* | Wind** | Luminosity | Snow |
|---|---|---|---|---|---|---|---|
| 1777737525 | 4.44° C | 87% | 1023 hPa | 0 mm | 2.24 m/s, 348° | - | - |
| 1777736926 | 3.89° C | 92% | 1022.9 hPa | 0 mm | 1.34 m/s, 28° | - | - |
| 1777736325 | 3.89° C | 92% | 1022.9 hPa | 0 mm | 2.68 m/s, 7° | - | - |
| 1777735725 | 3.89° C | 91% | 1022.8 hPa | 0 mm | 3.13 m/s, 5° | - | - |
| 1777735125 | 3.89° C | 92% | 1022.6 hPa | 0 mm | 3.13 m/s, 7° | - | - |
| 1777734596 | 3.89° C | 94% | 1022.6 hPa | 0 mm | 3.58 m/s, 359° | - | - |
| 1777734525 | 3.89° C | 94% | 1022.6 hPa | 0 mm | 3.58 m/s, 359° | - | - |
| 1777733926 | 3.89° C | 96% | 1022.4 hPa | 0 mm | 0.45 m/s, 8° | - | - |
| 1777733325 | 3.33° C | 95% | 1022.4 hPa | 0 mm | 0.89 m/s, 328° | - | - |
| 1777732725 | 3.33° C | 96% | 1022.3 hPa | 0 mm | 1.79 m/s, 345° | - | - |
| 1777732125 | 2.78° C | 96% | 1022.3 hPa | 0 mm | 1.79 m/s, 320° | - | - |
| 1777731527 | 3.33° C | 97% | 1022.1 hPa | 0 mm | 2.24 m/s, 11° | - | - |
| 1777730925 | 2.78° C | 97% | 1022 hPa | 0.25 mm | 0.89 m/s, 341° | - | - |
| 1777730411 | 2.78° C | 97% | 1021.9 hPa | 0.51 mm | 0 m/s | - | - |
| 1777730325 | 2.78° C | 97% | 1021.9 hPa | 0.51 mm | 0 m/s | - | - |
| 1777729725 | 2.22° C | 97% | 1021.8 hPa | 0.51 mm | 0 m/s | - | - |
| 1777729125 | 2.22° C | 97% | 1021.8 hPa | 0.76 mm | 0 m/s | - | - |
| 1777728526 | 2.22° C | 97% | 1021.8 hPa | 0.76 mm | 0.89 m/s, 9° | - | - |
| 1777727927 | 1.67° C | 97% | 1021.8 hPa | 0.76 mm | 1.34 m/s, 358° | - | - |
| 1777727325 | 1.67° C | 97% | 1021.8 hPa | 0.76 mm | 0 m/s | - | - |
| 1777726725 | 1.67° C | 97% | 1021.9 hPa | 1.02 mm | 1.34 m/s, 359° | - | - |
| 1777726125 | 1.67° C | 97% | 1022 hPa | 1.27 mm | 0.45 m/s, 14° | - | - |
| 1777725525 | 1.67° C | 97% | 1022 hPa | 0.76 mm | 0.89 m/s, 350° | - | - |
| 1777724925 | 1.67° C | 97% | 1021.9 hPa | 0.76 mm | 1.34 m/s, 18° | - | - |
| 1777724414 | 1.67° C | 97% | 1021.7 hPa | 0.76 mm | 1.79 m/s, 18° | - | - |
* Rain latest hour (hover to see other rain measurements)
** Current wind speed in m/s (hover to see current wind gust speed)